www.pogodaiklimat.ru

Погода и климат >> Архив погоды >> Россия >> Ненецкий АО >> Имени Федорова


ПОГОДА в Имени Федорова

  • Прогноз погоды в Имени Федорова
  • Монитор погоды в Имени Федорова
  • Климат города

АРХИВ ПОГОДЫ в Имени Федорова

Время (UTC), дата Ветер
(напр.,м/с)
 
Видим.   Явления Облачность Т
(С)
Тd
(С)
f
(%)
Тe
(С)
Тes
(С)
Комфортность P
(гПа)
Po
(гПа)
Тmin
(С)
Tmax
(С)
R
(мм)
S
(см)
09 13.02 Ю 10-12
{13}
10 км сильный позёмок {метель} 8/5 1000 м
[Sc Ci fib]
-6.6 -8.1 89 -17 -17 986.3 984.9
12 13.02 Ю 12-15
{16}
2000 м метель 10/0
[Ac und]
-6.8 -7.8 93 -18 -18 983.5 982.2
18 13.02 Ю 14-17
{19}
500 м слабый снег {метель} 10/0 480 м
[As op]
-6.0 -7.3 90 -17 -17 978.9 977.6
21 13.02 Ю 13-15
{17}
500 м слабый снег {метель} 10/10 210 м
[Frnb Ns]
-6.0 -6.9 93 -17 -17 978.9 977.6
00 14.02 Ю 9-12
{15}
2000 м слабый ливневой снег {метель} 9/9 300 м
[Cb cap]
-6.6 -7.5 93 -16 -16 979.1 977.8
03 14.02 Ю 5
{11}
10 км позёмок {ливн. осадки, метель} 10/10 500 м
[Sc]
-6.3 -7.4 92 -14 -14 980.6 979.3 -6.6 0.7 3
06 14.02 ЮЗ 2 20 км {ливн. осадки, метель} 10/10 540 м
[Sc]
-5.5 -6.1 96 -10 -10 982.1 980.8
09 14.02 С 6 4000 м слабый снег 10/0 400 м
[As op]
-3.8 -4.7 93 -11 -11 983.5 982.2
12 14.02 С 8-11
{11}
10 км позёмок {снег, метель} 10/10 570 м
[Sc]
-4.6 -8.1 76 -13 -13 985.7 984.4
18 14.02 С 10-13
{14}
4000 м метель {ливн. осадки} 10/10 660 м
[Sc]
-5.9 -8.7 81 -16 -16 989.4 988.1
21 14.02 С 12-17
{17}
2000 м метель 10/10 540 м
[Sc]
-6.4 -10.9 70 -17 -17 991.1 989.7
00 15.02 С 10-14
{17}
1000 м слабый ливневой снег {метель} 10/10 270 м
[Cb cap]
-6.6 -7.9 90 -17 -17 993.5 992.1
03 15.02 С 13-18
{18}
200 м слабый ливневой снег {метель} 10/10 600 м
[Cb cap]
-7.4 -9.2 87 -19 -19 996.8 995.4 -7.4 0.5 3
06 15.02 С 14-18
{19}
1000 м сильная метель {ливн. осадки} 10/10 870 м
[Sc]
-8.0 -10.2 84 -20 -20 1000.6 999.2 -8.0
09 15.02 С 13-17
{20}
2000 м метель {ливн. осадки} 10/10 840 м
[Sc]
-8.9 -10.9 85 -21 -21 1004.7 1003.3
12 15.02 С 11-14
{19}
2000 м метель {ливн. осадки} 10/10 900 м
[Sc]
-9.4 -11.9 82 -20 -20 1008.3 1006.9
18 15.02 СЗ 7-11
{15}
10 км позёмок {метель} 10/0
[Ac und]
-10.0 -16.1 61 -19 -19 1011.6 1010.2
21 15.02 СЗ 3
{11}
10 км {метель} 10/0
[Ac trans]
-10.5 -16.2 63 -16 -16 1011.7 1010.3
00 16.02 ЮЗ 5 10 км {метель} 10/10 1140 м
[Sc]
-11.6 -14.8 77 -20 -20 1011.0 1009.6
03 16.02 Ю 9-10
{11}
10 км позёмок {метель} 10/0
[Ac und]
-12.5 -15.1 81 -23 -23 1007.0 1005.6 -15.6 3
06 16.02 Ю 14-17
{18}
2000 м метель 10/0
[Ac und]
-9.5 -10.7 91 -22 -22 1001.0 999.6
09 16.02 Ю 20-23
{23}
200 м снег {метель} 10/10 210 м
[Frnb Ns]
-8.1 -9.0 93 -22 -22 993.6 992.2
12 16.02 СЗ 14-18
{25}
500 м сильная метель {снег} 10/10 700 м
[Sc]
-3.4 -4.1 95 -14 -14 988.2 986.9
15 16.02 З 12-15
{18}
4000 м метель 8/0
[Ac trans]
-5.4 -8.9 76 -16 -16 990.5 989.1 -3.4 1
18 16.02 З 12-16
{18}
4000 м метель 8/0
[Ac As]
-6.6 -10.9 71 -17 -17 990.3 988.9
21 16.02 З 11-15
{15}
4000 м метель 6/0
[Ac As]
-7.7 -11.4 75 -18 -18 989.4 988.0
06 17.02 З 14-19
{20}
4000 м метель 3/0
[Ac trans]
-7.4 -11.3 74 -19 -19 985.5 984.1
09 17.02 СЗ 13-16
{20}
4000 м метель 9/9 720 м
[Sc]
-7.7 -9.6 86 -19 -19 984.6 983.2
12 17.02 СЗ 10-15
{16}
10 км сильный позёмок {ливн. осадки, метель} 10/10 1050 м
[Sc]
-11.4 -14.6 77 -22 -22 987.8 986.5
15 17.02 С 12-16
{17}
4000 м метель {ливн. осадки} 10/10 750 м
[Sc]
-11.6 -15.1 75 -23 -23 989.5 988.1 -6.7 0.4
18 17.02 СЗ 10-14
{19}
10 км сильный позёмок {ливн. осадки, метель} 10/10 800 м
[Sc]
-11.2 -14.7 75 -22 -22 991.1 989.8
21 17.02 СЗ 10-14
{16}
10 км сильный позёмок {метель} 10/10 800 м
[Sc]
-12.2 -15.6 76 -23 -23 992.9 991.5
00 18.02 С 10-14
{17}
10 км сильный позёмок {метель} 10/10 800 м
[Sc]
-12.3 -14.8 82 -23 -23 994.1 992.7
03 18.02 С 6
{14}
2000 м слабый ливневой снег {метель} 10/10 720 м
[Cb cap]
-12.0 -14.6 81 -21 -21 994.9 993.5 -12.5 0.4 1
06 18.02 СВ 5
{10}
2000 м слабый ливневой снег {метель} 10/10 270 м
[Cb cap]
-11.7 -13.8 84 -20 -20 995.6 994.2
09 18.02 СВ 5 2000 м слабый ливневой снег 10/10 500 м
[Cb cap]
-11.8 -15.0 77 -20 -20 996.2 994.8
12 18.02 СВ 6 2000 м слабый ливневой снег {метель} 10/10 450 м
[Cb cap]
-12.7 -15.4 80 -22 -22 996.4 995.0
15 18.02 В 8-10
{10}
2000 м слабый ливневой снег {метель} 8/8 450 м
[Cb cap]
-12.9 -16.5 74 -23 -23 996.4 995.0 -11.5 0.6
18 18.02 В 8-11
{11}
2000 м слабый ливневой снег {метель} 10/10 700 м
[Cb cap]
-13.7 -16.5 79 -24 -24 996.0 994.6
21 18.02 В 11-14
{14}
2000 м слабый ливневой снег {метель} 10/10 630 м
[Cb cap]
-14.6 -16.9 83 -27 -27 995.7 994.3
00 19.02 В 10-13
{15}
2000 м слабый ливневой снег {метель} 10/10 630 м
[Cb cap]
-14.9 -17.3 82 -27 -27 995.8 994.4
06 19.02 В 10-13
{15}
4000 м метель {ливн. осадки} 10/10 660 м
[Sc]
-15.4 -17.9 81 -28 -28 995.4 994.0 -15.6
09 19.02 СВ 10-12
{14}
1000 м слабый ливневой снег {метель} 10/10 600 м
[Cb cap]
-15.5 -17.7 83 -28 -28 995.8 994.4
12 19.02 СВ 10-12
{13}
2000 м слабый ливневой снег {метель} 10/10 270 м
[Cb cap]
-15.9 -18.6 80 -28 -28 996.1 994.7
18 19.02 СВ 9-11
{12}
2000 м слабый ливневой снег {метель} 10/10 750 м
[Cb cap]
-15.5 -18.6 77 -27 -27 995.8 994.4
21 19.02 СВ 9-12
{12}
4000 м слабый снег {ливн. осадки} 10/0 300 м
[As op]
-15.5 -18.1 80 -27 -27 995.7 994.3
00 20.02 СВ 8-11
{12}
4000 м слабый снег {ливн. осадки} 10/0 330 м
[As op]
-15.7 -18.2 81 -27 -27 995.4 994.0

 

Местоположение метеостанции Имени Федорова (Ненецкий АО, Россия): широта 70.45 долгота 59.08 высота над уровнем моря 12 м.

В архиве по умолчанию представлена погода в Имени Федорова за последнюю неделю. Архивные данные за месяц целиком и за предыдущие месяцы, начиная с января 2011 года, Вы можете получить, выбрав интересующий диапазон дат из раскрывающегося списка и нажав кнопку "Ввод!".

Внимание! Время в таблицах - всемирное. Для получения местного времени необходимо прибавить поправку, которая в Имени Федорова равна 3 ч.

Смотрите также архив погоды в соседних городах и на ближайших метеорологических станциях:

Погода на Мысе Белый Нос (Ненецкий АО, Россия) (104 км)
Погода в Амдерме (Ненецкий АО, Россия) (124 км)
Погода в Варандее (Ненецкий АО, Россия) (186 км)
Погода на Мысе Константиновском (Ненецкий АО, Россия) (253 км)
Погода в Усть-Каре (Ненецкий АО, Россия) (261 км)
Погода в Марресаля (Ямало-Ненецкий АО, Россия) (304 км)
Погода в Inari Angeli (Финляндия) (309 км)
Погода в Малых Кармакулах (Архангельская область, Россия) (310 км)
Погода в Хорей-Вере (Ненецкий АО, Россия) (339 км)
Погода в Сенгейском Шаре (Ненецкий АО, Россия) (376 км)

Пояснения к столбцам:

Ветер - указаны скорость ветра в м/с - средняя за 10 мин, порывы в срок и между сроками (в фигурных скобках) и направление, откуда дует ветер: С - северный, СВ - северо-восточный, В - восточный, ЮВ - юго-восточный, Ю - южный, ЮЗ - юго-западный, З - западный, СЗ - северо-западный.
Видимость - горизонтальная дальность видимости в метрах или километрах. При видимости от 1 до 10 км при отсутствии осадков обычно наблюдается дымка, при ухудшении видимости до 1 км и менее - туман. В сухую погоду видимость может ухудшаться дымом, пылью или мглою.
Явления - указаны атмосферные явления, наблюдавшиеся в срок или в последний час перед сроком; фигурными скобками обозначены явления, наблюдавшиеся между сроками (за 1-3 часа до срока); квадратными скобками обозначены град или гололедные отложения с указанием их диаметра в мм.
Облачность - указаны через наклонную черту общая и нижняя облачность в баллах и высота нижней границы облаков в метрах; квадратными скобками обозначены формы облаков: Ci - перистые, Cs - перисто-слоистые, Cc - перисто-кучевые, Ac - высококучевые, As - высокослоистые, Sc - слоисто-кучевые, Ns - слоисто-дождевые, Cu - кучевые, Cb - кучево-дождевые. Подробнее классификацию облаков см. в Атласе облаков (PDF).
T - Температура воздуха - температура, измеренная на высоте 2 м над землей.
Td - Температура точки росы - температура, при понижении до которой содержащийся в воздухе водяной пар достигнет насыщения.
f - Относительная влажность воздуха - влажноcть воздуха, измеренная на высоте 2 м над землей.
Te - Эффективная температура - температура, которую ощущает одетый по сезону человек в тени. Характеристика душности погоды. При расчете учитывается влияние влажности воздуха и скорости ветра на теплоощущения человека.
Tes - Эффективная температура на солнце - температура, которую ощущает человек, с поправкой на солнечный нагрев. Характеристика знойности погоды. Зависит от высоты солнца над горизонтом, облачности и скорости ветра. Ночью, в пасмурную погоду, а также при ветре 12 м/с и более поправка равна нулю.
P - Атмосферное давление - приведенное к уровню моря атмосферное давление.
Po - Атмосферное давление - измеренное на уровне метеостанции атмосферное давление.
Tmin - Минимальная температура - минимум температуры воздуха на высоте 2 м над землей.
Tmax - Максимальная температура - максимум температуры воздуха на высоте 2 м над землей.
R - Количество осадков - Количество выпавших осадков, мм. При наведении курсора мыши на число - период времени, за который выпало указанное количество осадков.
S - Снежный покров - Высота снежного покрова, см. При наведении курсора мыши на число - состояние снежного покрова и степень покрытия местности в баллах.